Regional Weather Roundup
Issued by NWS Newport/Morehead, NC

Current Version | Previous Version | Graphics & Text | Print | Product List | Glossary Off
Versions: 1 2 3 4 5 6 7 8 9 10 11 12 13 14 15 16 17 18 19 20 21 22 23 24 25 26 27 28 29 30 31 32 33 34 35 36 37 38 39 40 41 42 43 44 45 46 47 48 49 50

000
ASUS42 KMHX 240713
RWRMHX
WEATHER ROUNDUP FOR EASTERN NORTH CAROLINA
NATIONAL WEATHER SERVICE NEWPORT/MOREHEAD CITY NC
300 AM EDT TUE MAY 24 2016

NOTE: "FAIR" INDICATES FEW OR NO CLOUDS BELOW 12,000 FEET
WITH NO SIGNIFICANT WEATHER AND/OR OBSTRUCTIONS TO VISIBILITY

NCZ015>017-031-032-045>047-102-103-240800-
NORTH COAST

CITY           SKY/WX    TMP DP  RH WIND       PRES   REMARKS
EDENTON        PTCLDY   N/A N/A N/A W5        29.99S
ELIZABETH CITY PTCLDY    57  53  86 W8        29.97R
KITTY HAWK     CLOUDY    61  56  85 CALM      29.94F
MANTEO         MOCLDY    59  58  98 W6        29.96F

$$

NCZ045>047-081-094-103-104-240800-
CENTRAL COAST

CITY           SKY/WX    TMP DP  RH WIND       PRES   REMARKS
FRISCO         CLEAR     63  54  72 W7G17     29.98S

$$

NCZ095-097-098-100-101-240800-
SOUTHERN COAST

CITY           SKY/WX    TMP DP  RH WIND       PRES   REMARKS
BEAUFORT       CLEAR     58  54  86 W6        30.02R
CEDAR ISLAND   NOT AVBL
JACKSONVILLE   CLEAR     54  51  90 SW3       30.03S
PINEY ISLAND   SUNNY    N/A N/A N/A SW8       30.00S
WILMINGTON     CLEAR     57  54  89 NW3       30.04S


$$

NCZ011>013-027>030-043-044-078>080-089-090>093-098-240800-
COASTAL PLAIN

CITY           SKY/WX    TMP DP  RH WIND       PRES   REMARKS
AHOSKIE        PTCLDY    52  51  96 CALM      30.00S
CLINTON        CLEAR     52  52 100 CALM      30.04F
ELIZABETHTOWN  NOT AVBL
GOLDSBORO      CLEAR     53  53 100 SW3       30.01S
GREENVILLE     CLEAR     52  52 100 W5        30.03R
HAVELOCK       CLEAR     55  52  89 W6        30.03R
KENANSVILLE    CLEAR     49  49  99 CALM      30.04F
KINSTON        CLEAR     53  51  92 SW5       30.03S
NEW BERN       CLEAR     53  51  93 SW5       30.03S
RICHLANDS      CLEAR     50  49  96 CALM      30.04S FOG
ROCKY MOUNT    MOCLDY    53  51  93 S3        30.01S
WASHINGTON     CLEAR     52  51  95 W3        30.01S
WHITEVILLE     CLEAR     53  52  96 CALM      30.05S

$$

AMZ130-135-150-152-154-156-158-170-250-252-270-ANZ085-086-088-633-658-670-240800-
MARINE OBSERVATIONS

STATION/POSITION TIME  TEMP    WIND        PRES    WAVE   SWELL
                       AIR SEA DIR/SP/G            HT/PER HT/PER
                 (UTC) (F)     (DEG/KT/KT) (MB)    (FT/S) (FT/S)
CHESAPEAKE LIGHT 0600   59     250/  7/  8 1014.5
64 E VA BEACH    0650   57 59  320/ 10/ 12 1013.3    6/ 9   5/ 9
DUCK             0600   61 62  280/  8/ 10 1013.5
2 E DUCK         0611      62                N/A     4/ 8   2/11
OREGON INLET     0600   60 65  270/ 10/ 13 1014.2
13E OREGON INLT  0700      61                N/A     5/ 9   5/ 9
HATTERAS CG      0600   64 67  280/ 14/ 16 1014.6
DIAMOND BUOY     0650   64 67  280/ 14/ 14 1015.2    4/ 9   3/ 9
CAPE LOOKOUT     0700   63     290/ 10/ 11 1015.8
BEAUFORT LAB     0600   60 67  320/  3/  6 1015.5
30 SE NEW RVR IN 0625      73                N/A     2/ 9
27 SE WRIGHTSVLE 0608   66 72  320/ 10/ 16 1016.4
5 SE WRIGHTSVLE  0608   64 71  310/  8/ 12 1017.8
225 S CAPE HAT   0650   73 77  270/ 14/ 17 1016.0    4/ 6   2/ 9
41 SE CHARLESTON 0650   71 75  360/  4/  6 1017.6    3/ 9   2/ 9

$$



USA.gov is the U.S. government's official web portal to all federal, state and local government web resources and services.